GW7626 Weather Reports


time (UTC)temp
C
wind
direction
speed
KPH
gust
KPH
rain 1hr
cm
rain 24hr
cm
rain mn
cm
humidity
%
barometer
mb
20260906131445 28 22 0.0 0.0 0.00 0.00 0.00 71 1013.1
20260906130940 28 35 0.0 0.0 0.00 0.00 0.00 74 1013.3
20260906130439 28 145 0.0 0.0 0.00 0.00 0.00 75 1013.2
20260906125934 27 143 0.0 1.6 0.00 0.00 0.00 77 1013.3
20260906125432 27 140 0.0 0.0 0.00 0.00 0.00 78 1013.2
20260906124931 26 140 0.0 0.0 0.00 0.00 0.00 80 1013.2
20260906124428 26 276 0.0 0.0 0.00 0.00 0.00 82 1013.1
20260906123927 25 276 0.0 0.0 0.00 0.00 0.00 87 1013.0
20260906123426 25 276 0.0 0.0 0.00 0.00 0.00 87 1012.9
20260906122921 24 276 0.0 0.0 0.00 0.00 0.00 88 1012.9
20260906122421 24 276 0.0 0.0 0.00 0.00 0.00 90 1013.0
20260906121919 24 276 0.0 0.0 0.00 0.00 0.00 91 1012.5
20260906121414 23 276 0.0 0.0 0.00 0.00 0.00 92 1012.6
20260906120911 23 276 0.0 0.0 0.00 0.00 0.00 93 1012.6
20260906120406 23 276 0.0 0.0 0.00 0.00 0.00 93 1012.5
20260906115902 23 276 0.0 0.0 0.00 0.00 0.00 93 1012.7
20260906115357 23 276 0.0 0.0 0.00 0.00 0.00 93 1012.4
20260906114856 23 276 0.0 0.0 0.00 0.00 0.00 93 1012.4
20260906114352 23 276 0.0 0.0 0.00 0.00 0.00 93 1012.3
20260906113847 23 276 0.0 0.0 0.00 0.00 0.00 91 1011.9
20260906113346 23 276 0.0 0.0 0.00 0.00 0.00 91 1011.9
20260906112841 23 276 0.0 0.0 0.00 0.00 0.00 91 1011.7
20260906112337 23 276 0.0 0.0 0.00 0.00 0.00 91 1011.7
20260906111832 23 276 0.0 0.0 0.00 0.00 0.00 91 1011.6
20260906111331 23 276 0.0 0.0 0.00 0.00 0.00 92 1011.4
20260906110827 23 276 0.0 0.0 0.00 0.00 0.00 92 1011.5
20260906110323 23 276 0.0 0.0 0.00 0.00 0.00 92 1011.5
20260906105821 23 276 0.0 0.0 0.00 0.00 0.00 93 1011.5
20260906105317 23 276 0.0 0.0 0.00 0.00 0.00 93 1011.6
20260906104813 23 276 0.0 0.0 0.00 0.00 0.00 93 1011.4
20260906104312 23 276 0.0 0.0 0.00 0.00 0.00 93 1011.4
20260906103810 23 276 0.0 0.0 0.00 0.00 0.00 93 1011.2
20260906103309 23 276 0.0 0.0 0.00 0.00 0.00 93 1011.1
20260906102805 23 276 0.0 0.0 0.00 0.00 0.00 93 1011.6
20260906102306 23 276 0.0 0.0 0.00 0.00 0.00 93 1011.4
20260906101759 23 276 0.0 0.0 0.00 0.00 0.00 93 1011.5
20260906101254 23 276 0.0 0.0 0.00 0.00 0.00 93 1011.3
20260906100749 23 276 0.0 0.0 0.00 0.00 0.00 93 1011.2
20260906100248 23 276 0.0 0.0 0.00 0.00 0.00 92 1011.3
20260906095744 24 276 0.0 0.0 0.00 0.00 0.00 92 1011.4
20260906095239 24 276 0.0 0.0 0.00 0.00 0.00 91 1011.4
20260906094738 24 276 0.0 0.0 0.00 0.00 0.00 91 1011.5
20260906094233 24 276 0.0 0.0 0.00 0.00 0.00 91 1011.2
20260906093730 24 276 0.0 0.0 0.00 0.00 0.00 91 1011.3
20260906093225 24 276 0.0 0.0 0.00 0.00 0.00 92 1011.4
20260906092721 24 276 0.0 0.0 0.00 0.00 0.00 92 1011.1
20260906092220 24 276 0.0 0.0 0.00 0.00 0.00 92 1011.4
20260906091716 23 276 0.0 0.0 0.00 0.00 0.00 92 1011.2
20260906091213 23 276 0.0 0.0 0.00 0.00 0.00 92 1011.3
20260906090709 24 276 0.0 0.0 0.00 0.00 0.00 92 1011.2
20260906090208 24 276 0.0 0.0 0.00 0.00 0.00 91 1011.4
20260906085707 24 276 0.0 0.0 0.00 0.00 0.00 91 1011.2
20260906085206 24 276 0.0 0.0 0.00 0.00 0.00 91 1011.2
20260906084701 24 276 0.0 0.0 0.00 0.00 0.00 90 1011.2
20260906084201 24 276 0.0 0.0 0.00 0.00 0.00 90 1011.0
20260906083655 24 276 0.0 0.0 0.00 0.00 0.00 89 1011.1
20260906083151 24 276 0.0 0.0 0.00 0.00 0.00 90 1010.9
20260906082646 24 276 0.0 0.0 0.00 0.00 0.00 90 1011.4
20260906082141 24 275 0.0 0.0 0.00 0.00 0.00 90 1011.2
20260906081637 24 275 0.0 0.0 0.00 0.00 0.00 89 1011.3
20260906081132 24 275 1.6 1.6 0.00 0.00 0.00 90 1011.2
20260906080629 24 272 0.0 0.0 0.00 0.00 0.00 90 1011.3
20260906080125 24 272 0.0 0.0 0.00 0.00 0.00 90 1011.4
20260906075624 24 272 0.0 0.0 0.00 0.00 0.00 90 1011.3
20260906075119 24 231 0.0 1.6 0.00 0.00 0.00 90 1011.2
20260906074614 24 340 0.0 3.2 0.00 0.00 0.00 90 1011.1
20260906074113 24 297 0.0 0.0 0.00 0.00 0.00 90 1011.1
20260906073608 24 297 0.0 0.0 0.00 0.00 0.00 90 1011.2
20260906073104 24 297 0.0 0.0 0.00 0.00 0.00 89 1011.0
20260906072604 24 297 0.0 0.0 0.00 0.00 0.00 90 1011.0
20260906072101 24 297 0.0 0.0 0.00 0.00 0.00 90 1010.8
20260906071557 24 297 0.0 0.0 0.00 0.00 0.00 90 1011.0
20260906071057 24 297 0.0 0.0 0.00 0.00 0.00 90 1010.9
20260906070554 24 297 0.0 0.0 0.00 0.00 0.00 90 1010.9
20260906070049 24 297 0.0 0.0 0.00 0.00 0.00 89 1010.9
20260906065548 24 297 0.0 0.0 0.00 0.00 0.00 89 1010.9
20260906065044 24 297 0.0 0.0 0.00 0.00 0.00 89 1011.0
20260906064540 24 297 0.0 0.0 0.00 0.00 0.00 89 1011.3
20260906064034 24 297 0.0 0.0 0.00 0.00 0.00 89 1010.9
20260906063530 24 297 0.0 0.0 0.00 0.00 0.00 89 1011.1
20260906063026 24 297 0.0 0.0 0.00 0.00 0.00 89 1011.1
20260906062521 24 297 0.0 0.0 0.00 0.00 0.00 89 1011.2
20260906062015 24 297 0.0 0.0 0.00 0.00 0.00 90 1011.3
20260906061511 24 297 0.0 0.0 0.00 0.00 0.00 90 1011.2
20260906061010 24 297 0.0 0.0 0.00 0.00 0.00 89 1011.2
20260906060507 24 297 0.0 0.0 0.00 0.00 0.00 88 1011.5
20260906060004 24 297 0.0 0.0 0.00 0.00 0.00 88 1011.4
20260906055459 24 297 0.0 0.0 0.00 0.00 0.00 89 1011.4
20260906054955 24 297 0.0 0.0 0.00 0.00 0.00 89 1011.6
20260906054454 24 297 0.0 0.0 0.00 0.00 0.00 89 1011.3
20260906053950 24 297 0.0 0.0 0.00 0.00 0.00 88 1011.5
20260906053446 25 297 0.0 0.0 0.00 0.00 0.00 88 1011.2
20260906052942 25 297 0.0 0.0 0.00 0.00 0.00 88 1011.5
20260906052438 25 297 0.0 0.0 0.00 0.00 0.00 88 1011.2
20260906051934 25 297 0.0 0.0 0.00 0.00 0.00 88 1011.4
20260906051430 25 297 0.0 0.0 0.00 0.00 0.00 87 1011.3
20260906050925 25 297 0.0 0.0 0.00 0.00 0.00 87 1011.2
20260906050425 25 297 0.0 0.0 0.00 0.00 0.00 86 1011.1
20260906045924 25 297 0.0 0.0 0.00 0.00 0.00 86 1011.2
20260906045423 25 297 0.0 0.0 0.00 0.00 0.00 87 1011.3
20260906044920 25 297 0.0 0.0 0.00 0.00 0.00 87 1011.2
20260906044420 25 297 0.0 0.0 0.00 0.00 0.00 87 1011.1
20260906043915 25 297 0.0 0.0 0.00 0.00 0.00 87 1011.2
20260906043411 25 297 0.0 0.0 0.00 0.00 0.00 87 1011.1
20260906042906 25 297 0.0 0.0 0.00 0.00 0.00 87 1011.1
20260906042406 25 297 0.0 0.0 0.00 0.00 0.00 86 1011.2
20260906041901 25 297 0.0 0.0 0.00 0.00 0.00 86 1011.0
20260906041357 25 297 0.0 0.0 0.00 0.00 0.00 86 1011.2
20260906040856 25 297 0.0 0.0 0.00 0.00 0.00 86 1011.0
20260906040352 25 297 0.0 0.0 0.00 0.00 0.00 86 1011.1
20260906035847 25 297 0.0 0.0 0.00 0.00 0.00 86 1011.1
20260906035342 25 297 0.0 0.0 0.00 0.00 0.00 85 1011.1
20260906034838 25 297 0.0 0.0 0.00 0.00 0.00 85 1011.1
20260906034333 25 297 0.0 0.0 0.00 0.00 0.00 84 1011.1
20260906033829 25 297 0.0 0.0 0.00 0.00 0.00 84 1011.3
20260906033328 25 297 0.0 0.0 0.00 0.00 0.00 84 1011.2
20260906032824 25 297 0.0 0.0 0.00 0.00 0.00 85 1011.2
20260906032320 25 297 0.0 0.0 0.00 0.00 0.00 85 1011.1
20260906031815 26 297 0.0 0.0 0.00 0.00 0.00 85 1011.2
20260906031310 26 297 0.0 0.0 0.00 0.00 0.00 85 1011.4
20260906030810 26 297 0.0 0.0 0.00 0.00 0.00 85 1011.4
20260906030305 26 297 0.0 0.0 0.00 0.00 0.00 85 1011.2
20260906025805 26 297 0.0 0.0 0.00 0.00 0.00 83 1011.3
20260906025259 26 297 0.0 0.0 0.00 0.00 0.00 83 1011.2
20260906024758 26 297 0.0 0.0 0.00 0.00 0.00 82 1011.2
20260906024257 26 297 0.0 0.0 0.00 0.00 0.00 82 1011.3
20260906023753 26 297 0.0 0.0 0.00 0.00 0.00 82 1011.1
20260906023248 26 297 0.0 0.0 0.00 0.00 0.00 82 1010.9
20260906022744 26 297 0.0 0.0 0.00 0.00 0.00 80 1011.1
20260906022239 26 297 0.0 0.0 0.00 0.00 0.00 81 1011.1
20260906021735 26 297 0.0 0.0 0.00 0.00 0.00 81 1010.9
20260906021234 27 297 0.0 0.0 0.00 0.00 0.00 79 1010.9
20260906020729 27 297 0.0 0.0 0.00 0.00 0.00 78 1010.7
20260906020223 27 297 0.0 0.0 0.00 0.00 0.00 77 1010.7
20260906015723 27 297 0.0 0.0 0.00 0.00 0.00 77 1010.7
20260906015221 27 297 0.0 0.0 0.00 0.00 0.00 78 1010.4
20260906014716 27 297 0.0 0.0 0.00 0.00 0.00 78 1010.6
20260906014213 27 297 0.0 0.0 0.00 0.00 0.00 79 1010.5
20260906013708 27 297 0.0 0.0 0.00 0.00 0.00 79 1010.4
20260906013208 27 297 0.0 0.0 0.00 0.00 0.00 78 1010.4
20260906012703 28 297 0.0 0.0 0.00 0.00 0.00 77 1010.4
20260906012158 28 297 0.0 0.0 0.00 0.00 0.00 75 1010.3
20260906011654 28 297 0.0 0.0 0.00 0.00 0.00 75 1010.3
20260906011154 28 297 0.0 0.0 0.00 0.00 0.00 75 1010.2
20260906010649 28 297 0.0 0.0 0.00 0.00 0.00 75 1010.3
20260906010146 28 297 0.0 0.0 0.00 0.00 0.00 75 1010.2
20260906005645 28 297 0.0 0.0 0.00 0.00 0.00 75 1010.2
20260906005144 29 297 0.0 0.0 0.00 0.00 0.00 73 1010.2
20260906004643 29 297 0.0 0.0 0.00 0.00 0.00 71 1010.3
20260906004138 29 297 0.0 0.0 0.00 0.00 0.00 73 1010.1
20260906003634 29 297 0.0 0.0 0.00 0.00 0.00 71 1010.0
20260906003130 30 297 0.0 0.0 0.00 0.00 0.00 70 1010.0
20260906002624 30 297 0.0 0.0 0.00 0.00 0.00 71 1010.3
20260906002119 30 297 0.0 0.0 0.00 0.00 0.00 68 1010.1
20260906001609 30 297 0.0 0.0 0.00 0.00 0.00 67 1010.0
20260906001108 30 297 0.0 0.0 0.00 0.00 0.00 67 1010.3
20260906000605 31 297 0.0 0.0 0.00 0.00 0.00 69 1010.0
20260906000059 31 297 0.0 0.0 0.00 0.00 0.00 66 1010.2
20260905235559 31 297 0.0 0.0 0.00 0.00 0.00 67 1010.3
20260905235054 32 297 0.0 0.0 0.00 0.00 0.00 67 1010.2
20260905234549 32 297 0.0 0.0 0.00 0.00 0.00 63 1010.2
20260905234044 32 297 0.0 0.0 0.00 0.00 0.00 62 1010.3
20260905233544 33 297 0.0 0.0 0.00 0.00 0.00 59 1010.3
20260905233044 33 297 0.0 0.0 0.00 0.00 0.00 59 1010.2
20260905232540 33 297 0.0 0.0 0.00 0.00 0.00 55 1010.4
20260905232035 34 297 0.0 1.6 0.00 0.00 0.00 53 1010.0
20260905231530 34 297 0.0 1.6 0.00 0.00 0.00 52 1010.2
20260905231026 35 297 0.0 0.0 0.00 0.00 0.00 50 1010.3
20260905230526 35 335 0.0 0.0 0.00 0.00 0.00 48 1010.3
20260905230024 35 335 0.0 0.0 0.00 0.00 0.00 49 1010.5
20260905225519 35 345 0.0 0.0 0.00 0.00 0.00 47 1010.4
20260905225014 35 294 0.0 0.0 0.00 0.00 0.00 46 1010.2
20260905224509 35 349 0.0 1.6 0.00 0.00 0.00 46 1010.3
20260905224008 35 327 0.0 1.6 0.00 0.00 0.00 45 1010.3
20260905223506 35 353 0.0 1.6 0.00 0.00 0.00 45 1010.4
20260905223001 35 18 1.6 3.2 0.00 0.00 0.00 45 1010.2
20260905222501 35 166 0.0 1.6 0.00 0.00 0.00 48 1010.2
20260905221956 35 89 1.6 1.6 0.00 0.00 0.00 47 1010.2
20260905221453 35 250 1.6 6.4 0.00 0.00 0.00 45 1010.3
20260905220949 35 339 0.0 1.6 0.00 0.00 0.00 45 1010.5
20260905220445 35 305 1.6 4.8 0.00 0.00 0.00 45 1010.3
20260905215944 35 3 0.0 4.8 0.00 0.00 0.00 46 1010.2
20260905215440 35 28 1.6 4.8 0.00 0.00 0.00 45 1010.5
20260905214936 35 275 4.8 9.7 0.00 0.00 0.00 44 1010.5
20260905214432 35 324 3.2 4.8 0.00 0.00 0.00 45 1010.4
20260905213931 35 9 1.6 6.4 0.00 0.00 0.00 46 1010.6
20260905213428 35 267 3.2 6.4 0.00 0.00 0.00 45 1010.5
20260905212923 36 335 1.6 4.8 0.00 0.00 0.00 45 1010.5
20260905212418 36 359 3.2 4.8 0.00 0.00 0.00 43 1010.2
20260905211917 36 35 1.6 12.9 0.00 0.00 0.00 43 1010.4
20260905211413 37 284 3.2 4.8 0.00 0.00 0.00 41 1010.3
20260905210909 37 348 3.2 6.4 0.00 0.00 0.00 41 1010.2
20260905210409 37 45 3.2 4.8 0.00 0.00 0.00 40 1010.6
20260905205908 37 20 3.2 9.7 0.00 0.00 0.00 40 1010.4
20260905205403 37 344 4.8 9.7 0.00 0.00 0.00 41 1010.5
20260905204901 37 340 3.2 6.4 0.00 0.00 0.00 40 1010.6
20260905204358 37 329 4.8 6.4 0.00 0.00 0.00 40 1010.6
20260905203856 37 299 3.2 4.8 0.00 0.00 0.00 41 1010.6
20260905203352 37 297 6.4 9.7 0.00 0.00 0.00 39 1010.9
20260905202848 37 23 0.0 3.2 0.00 0.00 0.00 39 1011.0
20260905202349 37 3 3.2 6.4 0.00 0.00 0.00 40 1010.8
20260905201845 37 83 1.6 6.4 0.00 0.00 0.00 40 1011.2
20260905201340 37 28 3.2 4.8 0.00 0.00 0.00 40 1011.3
20260905200839 37 328 6.4 9.7 0.00 0.00 0.00 39 1011.3
20260905200336 37 353 3.2 9.7 0.00 0.00 0.00 40 1011.4
20260905195833 38 350 6.4 12.9 0.00 0.00 0.00 38 1011.3
20260905195329 38 315 3.2 4.8 0.00 0.00 0.00 39 1011.5
20260905194825 37 344 4.8 4.8 0.00 0.00 0.00 40 1011.5
20260905194324 37 188 0.0 3.2 0.00 0.00 0.00 42 1011.7
20260905193823 37 326 1.6 4.8 0.00 0.00 0.00 40 1011.6
20260905193319 37 352 3.2 6.4 0.00 0.00 0.00 40 1011.8
20260905192814 37 1 3.2 11.3 0.00 0.00 0.00 41 1011.7
20260905192310 38 311 4.8 6.4 0.00 0.00 0.00 38 1011.8
20260905191809 38 179 3.2 4.8 0.00 0.00 0.00 38 1012.0
20260905191308 37 17 3.2 6.4 0.00 0.00 0.00 38 1011.9
20260905190807 37 66 4.8 9.7 0.00 0.00 0.00 40 1012.2
20260905190301 37 38 6.4 9.7 0.00 0.00 0.00 38 1012.3
20260905185800 38 8 6.4 9.7 0.00 0.00 0.00 37 1012.0
20260905185255 37 42 1.6 4.8 0.00 0.00 0.00 39 1012.4
20260905184754 37 22 6.4 9.7 0.00 0.00 0.00 41 1012.3
20260905184253 37 27 3.2 6.4 0.00 0.00 0.00 40 1012.4
20260905183753 36 10 0.0 3.2 0.00 0.00 0.00 42 1012.3
20260905183249 37 350 6.4 9.7 0.00 0.00 0.00 41 1012.6
20260905182748 37 334 3.2 6.4 0.00 0.00 0.00 42 1012.6
20260905182247 37 31 3.2 12.9 0.00 0.00 0.00 42 1012.7
20260905181743 37 305 0.0 4.8 0.00 0.00 0.00 44 1012.4
20260905181242 37 324 4.8 4.8 0.00 0.00 0.00 42 1012.7
20260905180737 37 310 3.2 3.2 0.00 0.00 0.00 43 1012.6
20260905180232 37 306 4.8 9.7 0.00 0.00 0.00 40 1012.7
20260905175732 37 14 4.8 11.3 0.00 0.00 0.00 41 1012.8
20260905175227 37 353 3.2 6.4 0.00 0.00 0.00 41 1012.9
20260905174722 37 345 8.0 11.3 0.00 0.00 0.00 41 1013.0
20260905174218 37 64 3.2 3.2 0.00 0.00 0.00 44 1012.9
20260905173714 37 58 0.0 4.8 0.00 0.00 0.00 43 1013.0
20260905173210 37 323 3.2 6.4 0.00 0.00 0.00 45 1013.0
20260905172709 37 21 3.2 4.8 0.00 0.00 0.00 45 1013.2
20260905172209 37 303 1.6 3.2 0.00 0.00 0.00 44 1013.1
20260905171704 37 318 3.2 4.8 0.00 0.00 0.00 44 1013.3
20260905171201 37 70 0.0 4.8 0.00 0.00 0.00 44 1013.4
20260905170658 37 43 4.8 9.7 0.00 0.00 0.00 43 1013.3
20260905170157 36 120 3.2 4.8 0.00 0.00 0.00 48 1013.5
20260905165657 36 348 3.2 11.3 0.00 0.00 0.00 46 1013.5
20260905165152 36 42 3.2 6.4 0.00 0.00 0.00 46 1013.6
20260905164647 36 37 3.2 4.8 0.00 0.00 0.00 46 1013.6
20260905164147 37 33 6.4 9.7 0.00 0.00 0.00 43 1013.7
20260905163643 36 236 1.6 9.7 0.00 0.00 0.00 46 1013.7
20260905163139 36 34 0.0 4.8 0.00 0.00 0.00 48 1013.7
20260905162635 36 325 3.2 4.8 0.00 0.00 0.00 49 1013.7
20260905162135 36 297 3.2 3.2 0.00 0.00 0.00 49 1013.7
20260905161634 35 64 3.2 6.4 0.00 0.00 0.00 49 1013.9
20260905161132 35 292 4.8 9.7 0.00 0.00 0.00 48 1013.9
20260905160627 36 356 4.8 9.7 0.00 0.00 0.00 49 1013.9
20260905160127 35 47 3.2 4.8 0.00 0.00 0.00 51 1013.9
20260905155626 35 305 1.6 4.8 0.00 0.00 0.00 50 1014.0
20260905155125 35 21 1.6 4.8 0.00 0.00 0.00 51 1014.0
20260905154620 35 109 3.2 3.2 0.00 0.00 0.00 53 1014.0
20260905154116 35 317 3.2 4.8 0.00 0.00 0.00 52 1014.0
20260905153611 35 107 0.0 1.6 0.00 0.00 0.00 56 1013.9
20260905153106 35 70 0.0 3.2 0.00 0.00 0.00 54 1014.0
20260905152601 35 105 1.6 1.6 0.00 0.00 0.00 54 1013.9
20260905152056 34 296 0.0 1.6 0.00 0.00 0.00 59 1013.9
20260905151551 35 310 1.6 4.8 0.00 0.00 0.00 55 1013.9
20260905151046 35 339 1.6 4.8 0.00 0.00 0.00 56 1013.9
20260905150541 34 312 1.6 1.6 0.00 0.00 0.00 55 1014.2
20260905150040 34 3 0.0 4.8 0.00 0.00 0.00 56 1014.1
20260905145538 34 57 0.0 4.8 0.00 0.00 0.00 56 1013.8
20260905145038 34 266 0.0 1.6 0.00 0.00 0.00 55 1014.2
20260905144533 33 241 0.0 1.6 0.00 0.00 0.00 58 1014.0
20260905144032 33 43 1.6 3.2 0.00 0.00 0.00 56 1013.9
20260905143531 33 297 1.6 1.6 0.00 0.00 0.00 57 1014.0
20260905143027 32 28 0.0 1.6 0.00 0.00 0.00 62 1013.8
20260905142525 32 277 0.0 1.6 0.00 0.00 0.00 63 1013.9
20260905142021 32 308 0.0 1.6 0.00 0.00 0.00 63 1013.7
20260905141515 31 308 0.0 1.6 0.00 0.00 0.00 67 1013.7
20260905141012 31 332 3.2 3.2 0.00 0.00 0.00 65 1013.8
20260905140506 31 322 0.0 1.6 0.00 0.00 0.00 66 1014.1
20260905140005 31 326 0.0 1.6 0.00 0.00 0.00 67 1013.8
20260905135501 31 136 0.0 0.0 0.00 0.00 0.00 67 1013.7
20260905134956 30 137 0.0 0.0 0.00 0.00 0.00 70 1013.9
20260905134455 30 135 0.0 0.0 0.00 0.00 0.00 69 1013.9
20260905133955 29 170 0.0 0.0 0.00 0.00 0.00 72 1013.9
20260905133450 28 146 0.0 0.0 0.00 0.00 0.00 73 1013.9
20260905132949 28 138 0.0 0.0 0.00 0.00 0.00 75 1014.0
20260905132444 28 242 0.0 0.0 0.00 0.00 0.00 75 1013.8
20260905131939 28 301 0.0 0.0 0.00 0.00 0.00 74 1013.9